Regional Weather Roundup
Issued by NWS

Home | Current Version | Previous Version | Graphics & Text | Print | Product List | Glossary On
Versions: 1 2 3 4 5 6 7 8 9 10 11 12 13 14 15 16 17 18 19 20 21 22 23 24 25 26 27 28 29 30 31 32 33 34 35 36 37 38 39 40 41 42 43 44 45 46 47 48 49 50
000
ASUS43 KMKX 220200
RWRWI

WISCONSIN REGIONAL WEATHER ROUNDUP
NATIONAL WEATHER SERVICE MILWAUKEE/SULLIVAN WI
900 PM CDT SAT OCT 21 2017

NOTE: "FAIR" INDICATES FEW OR NO CLOUDS BELOW 12,000 FEET WITH NO
SIGNIFICANT WEATHER AND/OR OBSTRUCTIONS TO VISIBILITY.

WIZ001-002-006>008-014>016-023>028-220300-
NORTHWEST WISCONSIN

CITY           SKY/WX    TMP DP  RH WIND       PRES   REMARKS
SUPERIOR ARPT  NOT AVBL
ASHLAND        MOCLDY    68  58  70 S13G20    29.71S
HAYWARD        CLOUDY    66  57  72 S12G21    29.72F
SIREN          NOT AVBL
CUMBERLAND     NOT AVBL
RICE LAKE      NOT AVBL
CHETEK         NOT AVBL
LADYSMITH      NOT AVBL
EAU CLAIRE     NOT AVBL
MENOMONIE      NOT AVBL
NEW RICHMOND   NOT AVBL
OSCEOLA        NOT AVBL
$$

WIZ003>005-009-010-017-018-220300-
NORTH CENTRAL WISCONSIN

CITY           SKY/WX    TMP DP  RH WIND       PRES   REMARKS
MANITOWISH WTR NOT AVBL
ARBOR VITAE    NOT AVBL
WOODRUFF       NOT AVBL
RHINELANDER    MOCLDY    67  58  72 S8        29.84F
EAGLE RIVER    NOT AVBL
LAND O LAKES   NOT AVBL
PHILLIPS       NOT AVBL
TOMAHAWK       NOT AVBL
MEDFORD        NOT AVBL
MERRILL        NOT AVBL
$$

WIZ029-030-035-036-043>047-220300-
CENTRAL WISCONSIN

CITY           SKY/WX    TMP DP  RH WIND       PRES   REMARKS
WAUSAU         CLOUDY    69  57  65 S14       29.82F
MOSINEE        PTCLDY    66  57  72 S13       29.85F
MARSHFIELD     FAIR      67  56  67 SE9       29.81F
STEVENS POINT  NOT AVBL
WAUPACA        NOT AVBL
WAUTOMA        MOCLDY   N/A N/A N/A SE14      29.87F
WISC RAPIDS    FAIR      69  57  65 S9        29.84F
CAMP DOUGLAS   NOT AVBL
$$

WIZ011>013-019>022-031-037>040-048>050-220300-
NORTHEAST WISCONSIN

CITY           SKY/WX    TMP DP  RH WIND       PRES   REMARKS
ANTIGO         NOT AVBL
SHAWANO        NOT AVBL
OCONTO         NOT AVBL
STURGEON BAY   MOCLDY    63  56  78 S22G29    29.93F
GREEN BAY      FAIR      65  57  75 S10       29.91F
MANITOWOC      MOCLDY    62  56  80 S20G29    29.96F
APPLETON       NOT AVBL
CLINTONVILLE   NOT AVBL
OSHKOSH        FAIR      66  57  72 S10       29.90F
$$

WIZ032>034-041-042-053>061-220300-
SOUTHWEST WISCONSIN

CITY           SKY/WX    TMP DP  RH WIND       PRES   REMARKS
LA CROSSE      MOCLDY    73  61  65 S14       29.75F
SPARTA         NOT AVBL
VIROQUA        NOT AVBL
BOSCOBEL       FAIR      74  59  59 VRB7      29.81F
PRAIRIE DU CHI NOT AVBL
PLATTEVILLE    NOT AVBL
$$

WIZ056-057-062-063-064-067-068-220300-
SOUTH CENTRAL WISCONSIN

CITY           SKY/WX    TMP DP  RH WIND       PRES   REMARKS
REEDSBURG      NOT AVBL
BARABOO/DELLS  NOT AVBL
LONE ROCK      NOT AVBL
MINERAL POINT  NOT AVBL
MADISON        MOCLDY    71  59  65 S16       29.89F
MIDDLETON      NOT AVBL
WATERTOWN      NOT AVBL
MONROE         NOT AVBL
JANESVILLE     CLOUDY    72  57  60 S12G18    29.93F
$$

WIZ051-052-058>065-066-070>072-220300-
SOUTHEAST WISCONSIN

CITY           SKY/WX    TMP DP  RH WIND       PRES   REMARKS
MILWAUKEE      FAIR      67  58  72 S10       29.97F
WAUKESHA       NOT AVBL
MILWAUKEE/TIMM NOT AVBL
RACINE         FAIR      65  58  78 S12       29.99F
BURLINGTON     NOT AVBL
KENOSHA        FAIR      70  57  63 S14       29.98F
FOND DU LAC    FAIR      68  55  63 S12       29.91F
SHEBOYGAN      CLOUDY    63  58  83 S12       29.96F
WEST BEND      NOT AVBL
JUNEAU         NOT AVBL
$$

LSZ147-162-220300-
LAKE SUPERIOR

STATION/POSITION TIME  TEMP    WIND        PRES    WAVE
                       AIR SEA DIR/SP/G            HT/PER
                 (UTC) (F)     (DEG/KT/KT) (MB)    (FT/S)
W MID LAKE BUOY  0050   59 52              1006.8R   1/ 4
DEVILS ISLAND    0100   67     180/ 10/ 15 1005.6F
SAXON HARBOR     0140   70     180/  7/ 15 1005.4F
$$

LMZ867-665-643>646-220300-
LAKE MICHIGAN

STATION/POSITION TIME  TEMP    WIND        PRES    WAVE
                       AIR SEA DIR/SP/G            HT/PER
                 (UTC) (F)     (DEG/KT/KT) (MB)    (FT/S)
S GREEN BAY BUOY 0030   63 58  160/ 21/ 25 1012.2F
N MID LAKE BUOY  0050   61 58  190/ 10/ 12 1015.1R   7/ 7
NORTHPORT PIER   0040   61     160/  9/ 16 1013.9S
KEWAUNEE LAKESHO 0130   55     170/ 11/ 14 1013.7S
SHEBOYGAN LAKESH 0100   59     180/ 19/ 20 1014.6R
PORT WASHINGTON  0130   57     190/  6/  9 1015.6F
ATWATER BUOY     0009   58 52  170/ 14/ 16 1014.8R
MILWAUKEE LAKESH 0100   58     150/ 13/ 14   N/A
S MID LAKE BUOY  0050   64 61  140/ 16/ 17 1016.4R   3/ 4
KENOSHA   LAKESH 0100   60     170/ 14/ 17 1015.6
$$

TC  - TEMPERATURE IN CELSIUS
VSB - VISIBILITY IN STATUTE MILES
WCI - WIND CHILL INDEX
HX  - HEAT INDEX





USA.gov is the U.S. government's official web portal to all federal, state and local government web resources and services.